Showing default

QIANFAN-186, 69404

Orbit data source: Space-Track

QIANFAN-186, 69404 is a Chinese payload satellite in LEO that was launched on Fri, 05 Jun 2026 UTC via a CHANG ZHENG 8 launch vehicle from the Wenchang Satellite Launch Center (WSC). Payload-class satellites include a variety of spacecraft equipped with specific instruments for various scientific and technological missions. These include communications satellites like Starlink; space stations such as the ISS; scientific satellites like the Hubble; Earth observation satellites from companies like Planet Labs, Umbra, and HawkEye 360; GPS; miniature CubeSats for education and research; and military/defense satellites.

Loading next visibility...
Identifier
69404, 2026-125D
Orbit
LEO
Country
Flag of CNCN / PRC
Related business
Manufacturer
SECM?
Mission
Operational spacecraft
Bus & Motor
QIANFAN, Unknown motor
Mass
267 kg wet, ~267 kg dry
Launch date (UTC)
2026-06-05 (2 weeks ago)
Launch vehicle
CHANG ZHENG 8
Launch site
Wenchang Satellite Launch Center (WSC)
Object type
Payload
Rocket body
Debris
Shape & HBR
Unknown
Radar Cross Section
Large (>1 m²)

Expand to show TLE details & history
Last TLE update: 1 day ago

TLE from 1 day ago
0 QIANFAN-186
1 69404U 26125D   26170.73084055 -.02150127  00000-0 -12051+1 0  9996
2 69404  88.9911 280.1598 0016523 183.2578 176.8505 14.14978163  2069
Epoch: 2026-06-19T17:32Z
TLE epoch observation values (Epoch: 2026-06-19T17:32:24.623Z)
Latitude
0.00003°
Longitude
109.10159°
Altitude
857.347 km
Speed
7.418 km/s
True Right ascension
18h 40m 38s
True Declination
0° 00' 00"
Sunlit
Object was in full shadow at epoch
Visualization orbit readout
Latitude
Unknown
Longitude
Unknown
Altitude
Unknown
Speed
Unknown
Apparent Right ascension
Unknown
Apparent Declination
Unknown
Sunlit
N/A
Visualization observer readout
Local Sidereal Time
07:12:22
Azimuth
Unknown
Elevation
Unknown
Doppler factor
Unknown
Orbital elements
Apogee altitude
851.27 km
Perigee altitude
827.419 km
Semi-major axis
7,217.482 km
Eccentricity
0.00165
Inclination
88.9911°
RAAN
280.1598°
Arg. of periapsis
183.2578°
True anomaly
176.86088°
Mean anomaly
176.8505°
Eccentric anomaly
176.85569°
Mean motion
3.53968 °/min
Orbital period
101.7 mins
BSTAR
-1.2051
Loading maneuver chart data...
Computing Atmospheric mass density...
Loading historical data...
Loading historical data...
Loading historical data...
Loading historical data...
Loading historical data...
Loading historical data...
Loading historical data...

Documentation

Showing up to 5 results
|